Location: Hillern
(53.0557°N, 9.8577°E)
Time: 20:18:06
(UTC+00:00)

Cosmos 1805 - Pass Details

Date: 19 May 2025
Orbit: 448 x 452 km, 82.5° (Epoch: 20 June)

Event Time Altitude Azimuth Distance (km) Brightness Sun altitude
Rises 20:44:29 0° 355° (N) 2,471 7.8 -9.9°
Reaches altitude 10° 20:46:40 10° 4° (N) 1,592 6.5 -10.1°
Maximum altitude 20:49:54 36° 72° (ENE) 739 3.8 -10.3°
Enters shadow 20:52:17 16° 134° (SE) 1,270 4.5 -10.5°
